Location: Santaluz Observatory
(32.9930°N, 117.1510°W)
Time: 20:58:11
(UTC-08:00)

Daily predictions for brighter satellites

Satellite Brightness Start Highest point End
(mag) Time Altitude Azimuth Time Altitude Azimuth Time Altitude Azimuth
FALCON 9 R/B 3.5 17:40:56 10° W 17:46:15 82° N 18:06:58 10° E
OAO 2 Rocket 3.3 17:58:36 10° WSW 18:03:36 88° SSE 18:08:32 10° ENE
Cosmos 2082 4.3 17:58:36 10° SSW 18:04:08 62° WNW 18:09:43 10° NNE
Cosmos 2333 Rocket 3.4 18:02:08 10° NNW 18:07:33 48° WSW 18:12:56 10° S
Cosmos 1908 Rocket 4.0 18:03:31 10° SSE 18:07:41 40° E 18:11:52 10° NNE
YAOGAN 1 3.1 18:05:12 10° S 18:09:28 66° WSW 18:13:47 10° NNW
FREGAT/IRIS 4.1 18:09:34 10° ESE 18:11:35 17° ENE 18:13:37 10° NNE
Tiangong 2 1.7 18:08:34 10° NW 18:11:36 40° NNE 18:14:35 10° E
Cosmos 1733 Rocket 3.6 18:08:55 10° SSW 18:13:11 62° W 18:17:27 10° N
Meteor 1-25 Rocket 4.2 18:12:33 10° S 18:18:01 67° E 18:23:33 10° NNE
Cosmos 1437 Rocket 3.7 18:14:34 10° SSE 18:18:02 28° E 18:21:31 10° NNE
EO 1 Del DPAF 3.2 18:17:06 10° NNE 18:20:56 87° ESE 18:24:44 10° SSW
Cosmos 44 Rocket 3.8 18:22:11 10° NNW 18:26:58 40° ENE 18:31:47 10° SE
NOAA 12 4.3 18:24:12 10° S 18:29:29 79° WSW 18:34:50 10° NNW
Meteor 1-4 Rocket 4.2 18:28:47 10° SE 18:30:11 15° ESE 18:30:11 15° ESE
SeaSat 1 3.9 18:30:03 15° E 18:32:00 19° NE 18:35:20 10° NNE
Gbstr 26 Del rocket 2.6 18:31:09 10° SW 18:34:52 68° SE 18:37:47 16° NE
Cosmos 1975 Rocket 3.9 18:35:03 10° NNE 18:38:56 29° ENE 18:42:50 10° SE
Envisat 3.8 18:36:25 10° SE 18:40:42 28° ENE 18:44:59 10° NNE
HJ-1C 4.0 18:37:39 10° SE 18:40:46 34° ENE 18:43:54 10° N
Resurs 01 Rocket 3.5 18:43:36 13° NE 18:43:36 13° NE 18:44:35 10° NNE
ALOS 3.9 18:39:33 10° SSW 18:43:52 37° W 18:48:12 10° NNW
COSMOS 2455 3.5 18:39:22 10° S 18:44:39 33° ESE 18:48:53 15° NE
Sakura Rocket 4.2 18:41:28 10° WSW 18:46:41 56° S 18:51:23 21° E
USA 215 3.2 18:41:26 10° NE 18:48:00 85° SE 18:54:32 10° SW
FengYun 1-2 T 4.1 18:43:27 10° SSE 18:48:58 80° ENE 18:54:27 10° N
Thor Agena Rocket 3.5 18:47:36 10° NNE 18:52:37 59° ESE 18:57:33 10° S
Cosmos 1269 Rocket 4.0 18:47:34 10° SSW 18:52:51 86° WNW 18:58:10 10° NNE
USA 32 4.0 18:47:50 10° S 18:53:04 86° E 18:58:18 10° N
Cosmos 44 3.5 18:48:02 10° NNW 18:53:11 84° WSW 18:58:30 10° SSE
Cosmos 494 Rocket 4.3 18:49:17 10° S 18:54:10 42° ESE 18:59:03 10° NNE
CZ-4C R/B 4.4 18:50:40 10° N 18:54:44 15° NE 18:55:56 15° NE
Cosmos 1513 Rocket 4.5 18:51:58 10° N 18:58:20 89° E 19:04:31 10° S
Cosmos 1378 Rocket 3.9 18:56:41 10° NNW 19:01:05 67° W 19:05:27 10° S
SJ-6B 2.6 18:59:16 10° SSE 19:02:57 63° ENE 19:06:45 10° N
H-2A R/B 4.0 19:01:04 10° S 19:04:47 43° W 19:08:31 10° NNW
Cosmos 1782 Rocket 3.8 19:01:04 10° SSW 19:05:30 73° W 19:09:56 10° N
ERS-2 2.8 19:06:06 10° S 19:09:43 56° WSW 19:13:21 10° NNW
GPS 2-05 Rocket1 2.9 19:06:43 10° WSW 19:09:31 54° S 19:09:31 54° S
Tsikada Rocket 4.0 19:08:40 10° S 19:15:05 87° W 19:21:32 10° N
SL-16 R/B 2.8 19:09:45 10° NNW 19:15:17 58° WSW 19:20:48 10° S
Alouette 2 Rocket 4.0 19:13:43 10° S 19:16:17 38° SSE 19:16:17 38° SSE
CENTAUR R/B 4.2 19:13:39 10° WSW 19:18:52 30° NW 19:24:41 10° NNE
Okean 1 4.2 19:18:39 10° NNW 19:22:30 49° W 19:26:19 10° SSW
CZ-2D R/B 3.3 19:22:59 33° S 19:24:38 78° W 19:28:32 10° NNW
Okean 2 Rocket 3.2 19:21:52 10° SSW 19:26:14 71° W 19:30:37 10° N
Meteor 1-13 Rocket 4.0 19:24:07 10° N 19:29:37 70° E 19:31:42 39° SSE
Cosmos 1603 3.6 19:28:27 10° NNW 19:34:02 61° ENE 19:34:02 61° ENE
H-2A R/B 3.9 19:32:53 10° SSW 19:36:22 14° S 19:36:22 14° S
Geosat 4.0 19:34:37 28° NNE 19:37:18 78° WNW 19:42:19 10° SSW
Cosmos 2251 Rocket 3.9 19:33:26 10° S 19:37:15 48° SSE 19:37:15 48° SSE
Cosmos 2263 Rocket 2.0 19:41:31 10° SSW 19:46:47 80° SSE 19:46:47 80° SSE
Tiangong 2 3.9 19:45:38 10° W 19:46:52 18° WSW 19:46:52 18° WSW
OAO 2 Rocket 3.6 19:43:35 10° W 19:47:54 61° NW 19:47:54 61° NW
CZ-3 Stage 3 4.0 19:52:31 10° W 19:53:36 18° WSW 19:53:36 18° WSW
CZ-3C R/B 3.5 19:52:52 10° SW 19:57:45 37° SSE 19:58:20 36° SSE
SeaSat 1 3.4 20:09:52 46° W 20:09:52 46° W 20:13:55 10° NW
Meteor 2-4 Rocket 4.1 20:04:07 10° NNW 20:09:41 60° W 20:09:41 60° W
Resurs 01 Rocket 4.1 20:21:10 17° NW 20:21:10 17° NW 20:22:17 10° NNW
Cosmos 1634 Rocket 4.5 20:16:10 10° NNW 20:21:38 56° WNW 20:21:38 56° WNW
COSMOS 2455 4.3 20:25:08 10° WSW 20:30:28 33° WNW 20:32:11 28° NNW
CZ-4C R/B 3.9 20:37:04 10° NNW 20:41:09 37° NNW 20:41:09 37° NNW
